Regional Weather Roundup
Issued by NWS

Home | Current Version | Previous Version | Graphics & Text | Print | Product List | Glossary On
Versions: 1 2 3 4 5 6 7 8 9 10 11 12 13 14 15 16 17 18 19 20 21 22 23 24 25 26 27 28 29 30 31 32 33 34 35 36 37 38 39 40 41 42 43 44 45 46 47 48 49 50
000
ASUS45 KBOU 220407
RWRCO

WEATHER ROUNDUP FOR COLORADO
NATIONAL WEATHER SERVICE DENVER/BOULDER CO
900 PM MST TUE FEB 21 2017

NOTE: "FAIR" INDICATES FEW OR NO CLOUDS BELOW 12000 FEET WITH NO
SIGNIFICANT WEATHER AND/OR OBSTRUCTIONS TO VISIBILITY.

COZ001>005-013-030-031-220500-
...NORTHWEST COLORADO...

CITY           SKY/WX    TMP DP  RH WIND       PRES   REMARKS
CRAIG          FAIR      49  28  44 SW23G38   29.94S
HAYDEN         FAIR      45  25  45 W14G21    29.96R
MEEKER         FAIR      48  31  51 SW14G24   29.99F
MOUNT WERNER   NOT AVBL
STEAMBOAT SPGS FAIR      45  23  42 S9        29.97F
WALDEN         NOT AVBL
$$

COZ006>008-011-220500-
...WEST CENTRAL VALLEYS...

CITY           SKY/WX    TMP DP  RH WIND       PRES   REMARKS
GRAND JUNCTION FAIR      50  37  61 SE10      30.02F
MONTROSE       FAIR      55  30  38 SW24G30   30.08F
EAGLE          CLEAR     48  28  46 SW15G23   30.05S
RIFLE          FAIR      47  34  60 NE7       30.02F
DELTA          MOCLDY    58  33  39 NW7       30.09S
NUCLA          FAIR      54  32  43 SW17G23   30.15R
$$

COZ017>023-064>068-220500-
...SOUTHWEST COLORADO...

CITY           SKY/WX    TMP DP  RH WIND       PRES   REMARKS
DURANGO        MOCLDY    43  32  65 E3        30.24F
CORTEZ         FAIR      51  36  56 CALM      30.18F
PAGOSA SPRINGS CLOUDY    40  29  65 CALM      30.28S
TELLURIDE      FAIR      42  25  52 W3        30.27F
WOLF CREEK PAS CLOUDY    27  27 100 SW13G23   30.40F WCI  16
$$

COZ009-010-012-014-032>034-037-058>063-220500-
...CENTRAL COLORADO...

CITY           SKY/WX    TMP DP  RH WIND       PRES   REMARKS
ASPEN          MOCLDY    48  21  34 S16G22    30.08F
BUENA VISTA    FAIR      46  14  27 S17G23    30.13F
COPPER MTN     LGT SNOW  32  14  47 W14G39    30.19F WCI  22
BERTHOUD PASS  FAIR      23  14  68 W48G62    30.09F WCI   2
COTTONWOOD PAS FAIR      41  14  33 W5        30.19F
GUNNISON       FAIR      30  26  85 S3        30.19F
KREMMLING      FAIR      50  28  43 SW24G39   30.02S
LEADVILLE      FAIR      33  15  47 S14       30.14F WCI  23
MONARCH PASS   MOCLDY    28  16  59 SW41G48   30.34F WCI  11
SALIDA         FAIR      51  16  25 SW14G29   30.21F
SUNLIGHT       NOT AVBL
WILKERSON PASS FAIR      30  12  47 SW18G30   30.22R WCI  18
$$

COZ069>075-220500-
...SAN LUIS VALLEY/SANGRE DE CRISTO MOUNTAINS...

CITY           SKY/WX    TMP DP  RH WIND       PRES   REMARKS
ALAMOSA        FAIR      44  25  47 SW9       30.24R
LA VETA PASS   FAIR      34  19  55 N12G25    30.31S WCI  25
SAGUACHE       CLOUDY    41  27  56 CALM      30.21F
$$

COZ035-036-038>040-220500-
...NORTHERN COLORADO FRONT RANGE...

CITY           SKY/WX    TMP DP  RH WIND       PRES   REMARKS
DENVER INTL AP FAIR      56  11  16 SW17      29.92F
DMNS CITY PARK   N/A     59   9  14 S5G16     29.92F
AURORA         MOCLDY    56  11  16 SW21      29.94F
FRONT RANGE AP NOT AVBL
ERIE MUNI ARPT FAIR      54   6  14 S9        29.91F
BOULDER MUN AP FAIR      55  12  18 CALM      29.91S
CENTENNIAL     MOCLDY    58   8  13 SW21G31   29.96F
BROOMFIELD     PTCLDY    55  10  16 S9        29.93F
FORT COLLINS   FAIR      58  15  18 SW16G22   29.89F
LONGMONT       FAIR      48  13  24 SW3       29.93R
$$

COZ041-046-047-076>085-087-088-220500-
...PIKES PEAK/PALMER DIVIDE AND SOUTHERN FOOTHILLS...

CITY           SKY/WX    TMP DP  RH WIND       PRES   REMARKS
COLO. SPRINGS  FAIR      59   2  10 W25G35    30.07F
A. F. ACADEMY  FAIR      56   2  11 SW20G29   30.06F
SCHRIEVER AFB  FAIR      56   2  11 W28G37    30.07F
ELLICOTT       FAIR     N/A N/A N/A W21G29    30.04F
FALCON         FAIR      53   1  12 SW17G25   30.08F
FORT CARSON    FAIR      58   0   9 SW28      30.04F
LIMON          FAIR      58   8  13 SW15G21   29.96F
MONUMENT HILL  FAIR      52   7  16 SW25G37   30.05F
TRINIDAD       FAIR      48   4  16 SW13      30.09S
$$

COZ042>045-048>051-090-091-220500-
...NORTHEAST COLORADO...

CITY           SKY/WX    TMP DP  RH WIND       PRES   REMARKS
GREELEY ARPT   FAIR      51  12  21 S3        29.89
AKRON          FAIR      53  15  22 SW15      29.88F
BURLINGTON     FAIR      53  19  26 W15       29.92S
WRAY           NOT AVBL
STERLING       FAIR      46  18  31 SW10      29.85R
HOLYOKE        FAIR      52  19  28 SW10      29.85R
FORT MORGAN    FAIR      47  16  29 W6        29.88F
$$

COZ086-089-092>099-220500-
...SOUTHEAST COLORADO...

CITY           SKY/WX    TMP DP  RH WIND       PRES   REMARKS
PUEBLO         FAIR      55  20  25 W14       30.01S
LA JUNTA       FAIR      56  13  18 W13       30.00R
LAMAR          FAIR      46  14  27 SW6       29.94S
SPRINGFIELD      N/A     45  20  36 W8        30.01R
$$



USA.gov is the U.S. government's official web portal to all federal, state and local government web resources and services.